[[{"header":{"parameterUnit":"m.s-1","parameterCategory":1,"la1":30.2991,"la2":30.254,"lo1":-89.0895,"lo2":-89.0444,"dy":0.0017,"dx":0.0017,"nx":28,"ny":28,"refTime":"2024-04-27T03:00:00:Z","depth":0,"parameterNumber":2,"parameterNumberName":"U-component_of_WINDS"},"data":[0,0,0,0,0,0,0,0,0,0,0,0,0,0,0,0,0,0,0,0,0,0,0,0,0,0,0,0,0,0,0,0,0,0,0,0,0,0,0,0,0,0,0,0,0,0,0,0,0,0,0,0,0,0,0,0,0,0,-5.6031,-5.6033,0,-5.6191,-5.6192,-5.6194,-5.6192,-5.6189,-5.6187,-5.6185,-5.6347,-5.6353,-5.6359,0,0,0,0,0,0,0,0,0,0,0,0,0,-5.5724,-5.573,-5.6031,-5.6033,-5.6035,-5.619,-5.6193,-5.6195,-5.6192,-5.6189,-5.6187,-5.6184,-5.6345,-5.6352,-5.636,0,0,0,0,0,0,0,0,0,0,0,0,0,-5.5868,-5.5732,-5.6031,-5.6053,-5.6056,-5.619,-5.6193,-5.6195,-5.6193,-5.6189,-5.6186,-5.6183,-5.6342,-5.6351,-5.6361,-5.6483,0,0,-5.639,-5.6394,0,0,0,0,0,0,0,0,-5.586,-5.5879,-5.6048,-5.6051,-5.6056,-5.6168,-5.6144,-5.6292,-5.6193,-5.6141,-5.6185,-5.6182,-5.629,-5.6303,-5.634,-5.649,-5.6497,-5.639,-5.6396,-5.64,-5.6403,0,0,0,0,0,0,0,-5.585,-5.5872,-5.6094,-5.605,-5.6055,-5.6054,-5.6071,-5.6172,-5.6231,-5.6145,-5.6145,-5.6164,-5.6291,-5.6331,-5.6344,-5.65,-5.639,-5.6398,-5.6404,-5.6408,-5.6759,-5.6762,0,0,0,0,0,0,-5.5836,-5.5864,-5.6089,-5.6099,-5.5948,-5.6062,-5.6081,-5.6135,-5.623,-5.6242,-5.6167,-5.6164,-5.6317,-5.6333,-5.635,-5.6498,-5.64,-5.6409,-5.6414,-5.6755,-5.6759,-5.6763,0,0,0,0,0,0,-5.5829,-5.5856,-5.6083,-5.5982,-5.6011,-5.6071,-5.6132,-5.614,-5.618,-5.6247,-5.6257,-5.6196,-5.6315,-5.6336,-5.645,-5.6504,-5.6413,-5.6422,-5.6751,-5.6756,-5.6761,-5.6796,0,0,0,0,0,0,-5.582,-5.5853,-5.59,-5.5983,-5.6016,-5.618,-5.6135,-5.6145,-5.6196,-5.6193,-5.6277,-5.6288,-5.6314,-5.6436,-5.6459,-5.6515,-5.6429,-5.6746,-5.6753,-5.676,-5.679,-5.6802,-5.6812,0,0,0,0,0,-5.5809,-5.5903,-5.5903,-5.593,-5.6076,-5.6184,-5.6202,-5.6231,-5.62,-5.6248,-5.6291,-5.6285,-5.6495,-5.6448,-5.6474,-5.6533,-5.6743,-5.6751,-5.6759,-5.6785,-5.68,-5.6812,0,0,0,0,0,0,-5.5824,-5.5914,-5.5915,-5.6038,-5.6103,-5.6183,-5.6243,-5.6245,-5.632,-5.6314,-5.6346,-5.6365,-5.6478,-5.6518,-5.6463,-5.6657,-5.6615,-5.6629,-5.6626,-5.664,-5.6651,-5.6637,-5.6437,0,0,0,0,0,-5.5842,-5.5922,-5.5997,-5.6099,-5.6132,-5.6182,-5.623,-5.6247,-5.6315,-5.6342,-5.6394,-5.646,-5.6541,-5.6593,-5.6672,-5.6798,-5.6815,-5.6852,-5.6862,-5.6871,-5.6882,-5.6951,-5.6967,-5.679,-5.679,-5.679,0,0,-5.5879,-5.5938,-5.5987,-5.6103,-5.6155,-5.6237,-5.6205,-5.6293,-5.6354,-5.6355,-5.6465,-5.6506,-5.6582,-5.6703,-5.6758,-5.6739,-5.6935,-5.6882,-5.6888,-5.6894,-5.6961,-5.6978,-5.6992,-5.6796,-5.6795,-5.6794,0,0,-5.5988,-5.6042,-5.6132,-5.6186,-5.6266,-5.63,-5.6322,-5.6402,-5.6429,-5.654,-5.6543,-5.6617,-5.6756,-5.681,-5.6855,-5.6988,-5.6985,-5.7013,-5.7068,-5.7135,-5.7149,-5.7162,-5.7207,-5.7224,-5.7024,-5.7024,-5.7024,0,-5.6023,-5.6147,-5.6178,-5.6267,-5.6317,-5.6325,-5.6416,-5.6467,-5.6569,-5.6603,-5.6581,-5.6756,-5.6808,-5.6941,-5.6973,-5.7011,-5.7036,-5.7001,-5.7145,-5.7158,-5.717,-5.7214,-5.7231,-5.7027,-5.7026,-5.7026,-5.7026,0,-5.6186,-5.6272,-5.6336,-5.6434,-5.6493,-5.6582,-5.6627,-5.6683,-5.6695,-5.6731,-5.6845,-5.6908,-5.6999,-5.7033,-5.7046,-5.7168,-5.7153,-5.7138,-5.7096,-5.7189,-5.723,-5.7248,-5.7031,-5.703,-5.7029,-5.7028,0,0,-5.6305,-5.6422,-5.6444,-5.6489,-5.6579,-5.6646,-5.6737,-5.6827,-5.6873,-5.6945,-5.702,-5.7139,-5.7126,-5.7178,-5.7197,-5.7257,-5.7356,-5.7234,-5.7236,-5.7253,-5.7494,-5.7502,-5.7521,-5.7357,-5.736,-5.7363,-5.7487,0,-5.6421,-5.6582,-5.6614,-5.6753,-5.6832,-5.6842,-5.6921,-5.6985,-5.7022,-5.7095,-5.7136,-5.7219,-5.7196,-5.7227,-5.7287,-5.7331,-5.7405,-5.7323,-5.7426,-5.7429,-5.7403,-5.7544,-5.7553,-5.7667,-5.7503,-5.7506,-5.7508,0,-5.6578,-5.6653,-5.68,-5.6881,-5.6915,-5.6986,-5.7071,-5.7141,-5.7215,-5.7237,-5.7297,-5.731,-5.7405,-5.7362,-5.7492,-5.7436,-5.7481,-5.7509,-5.7515,-5.7522,-5.7472,-5.7553,-5.7704,-5.772,-5.7534,-5.7532,-5.753,0,-5.6647,-5.6786,-5.6892,-5.693,-5.7027,-5.7076,-5.7119,-5.719,-5.7242,-5.7317,-5.7351,-5.7437,-5.7483,-5.7548,-5.7585,-5.755,-5.7712,-5.7672,-5.7733,-5.7732,-5.7763,-5.776,-5.7921,-5.7797,-5.7797,-5.7796,-5.7796,0,-5.6772,-5.6861,-5.6924,-5.6989,-5.7089,-5.7126,-5.7224,-5.7267,-5.733,-5.7403,-5.7418,-5.7486,-5.7531,-5.7606,-5.7636,-5.7739,-5.776,-5.7781,-5.7787,-5.7778,-5.7775,-5.7805,-5.7796,-5.7801,-5.78,-5.7799,-5.7798,0,-5.6864,-5.691,-5.7026,-5.711,-5.7133,-5.7203,-5.7274,-5.7338,-5.7376,-5.7469,-5.7493,-5.7553,-5.7642,-5.7686,-5.7797,-5.7817,-5.7932,-5.7935,-5.7907,-5.7909,-5.7966,-5.7959,-5.8149,-5.8175,-5.8037,-5.8038,-5.8039,0,-5.6939,-5.7008,-5.71,-5.715,-5.7194,-5.7275,-5.7329,-5.7369,-5.7425,-5.7515,-5.7567,-5.7657,-5.7731,-5.7873,-5.7926,-5.8012,-5.8015,-5.8076,-5.8027,-5.8016,-5.8013,-5.8007,-5.8014,-5.8083,-5.8084,-5.8085,-5.8086,0,-5.7067,-5.7087,-5.7164,-5.725,-5.7314,-5.7384,-5.7452,-5.7492,-5.7543,-5.7605,-5.7697,-5.7754,-5.7868,-5.7957,-5.8047,-5.8091,-5.8097,-5.8102,-5.812,-5.8109,-5.809,-5.8099,-5.7928,-5.8096,-5.8095,-5.8094,-5.8094,-5.8093,-5.7152,-5.7213,-5.7287,-5.7373,-5.7429,-5.7493,-5.7557,-5.7604,-5.7681,-5.7777,-5.7797,-5.7894,-5.7967,-5.8088,-5.8135,-5.8212,-5.8198,-5.8225,-5.8231,-5.8236,-5.8238,-5.808,-5.8228,-5.8228,-5.8228,-5.8228,-5.8228,0,-5.7278,-5.7327,-5.7406,-5.7501,-5.7569,-5.7571,-5.7647,-5.7703,-5.7789,-5.7857,-5.793,-5.8036,-5.8123,-5.8184,-5.8273,-5.8322,-5.8327,-5.8344,-5.8339,-5.8349,-5.8246,-5.822,-5.8338,-5.8338,-5.8338,-5.8338,-5.8338,-5.8338,-5.7352,-5.7456,-5.7485,-5.7617,-5.7666,-5.7761,-5.7804,-5.7863,-5.7918,-5.8035,-5.8108,-5.8148,-5.8213,-5.8307,-5.8387,-5.8403,-5.8434,-5.8451,-5.8466,-5.8368,-5.8356,-5.8345,-5.8321,-5.8458,-5.8458,-5.8562,-5.8563,-5.8564]},{"header":{"parameterUnit":"m.s-1","parameterCategory":1,"la1":30.2991,"la2":30.254,"lo1":-89.0895,"lo2":-89.0444,"dy":0.0017,"dx":0.0017,"nx":28,"ny":28,"refTime":"2024-04-27T03:00:00:Z","depth":0,"parameterNumber":3,"parameterNumberName":"V-component_of_WINDS"},"data":[0,0,0,0,0,0,0,0,0,0,0,0,0,0,0,0,0,0,0,0,0,0,0,0,0,0,0,0,0,0,0,0,0,0,0,0,0,0,0,0,0,0,0,0,0,0,0,0,0,0,0,0,0,0,0,0,0,0,3.8392,3.8392,0,3.8387,3.8387,3.8387,3.8329,3.8328,3.8326,3.8325,3.832,3.8321,3.8322,0,0,0,0,0,0,0,0,0,0,0,0,0,3.8351,3.8352,3.8392,3.8392,3.8392,3.8387,3.8387,3.8387,3.8329,3.8328,3.8326,3.8324,3.8319,3.8321,3.8322,0,0,0,0,0,0,0,0,0,0,0,0,0,3.836,3.8353,3.8392,3.8363,3.836,3.8387,3.8387,3.8387,3.833,3.8328,3.8325,3.8323,3.8319,3.832,3.8322,3.8377,0,0,3.8328,3.8329,0,0,0,0,0,0,0,0,3.836,3.8362,3.8367,3.8365,3.8362,3.8357,3.8371,3.8384,3.833,3.8341,3.8325,3.8322,3.8334,3.8334,3.8338,3.8377,3.8377,3.8328,3.8329,3.833,3.833,0,0,0,0,0,0,0,3.8359,3.8362,3.839,3.8367,3.8364,3.835,3.8349,3.8373,3.835,3.834,3.8336,3.8336,3.8332,3.8336,3.8337,3.8377,3.8328,3.833,3.8331,3.8331,3.8462,3.8464,0,0,0,0,0,0,3.8363,3.8361,3.839,3.839,3.8355,3.8352,3.8351,3.836,3.8349,3.8346,3.8338,3.8333,3.8334,3.8335,3.8337,3.8401,3.833,3.8332,3.8333,3.846,3.8462,3.8465,0,0,0,0,0,0,3.8362,3.8366,3.839,3.8375,3.8377,3.8355,3.8366,3.8362,3.8366,3.8348,3.8343,3.8347,3.8333,3.8334,3.8368,3.84,3.8332,3.8334,3.8457,3.846,3.8464,3.8529,0,0,0,0,0,0,3.8361,3.8366,3.8386,3.8375,3.8378,3.8422,3.8368,3.8363,3.8369,3.8363,3.8355,3.8351,3.8331,3.8366,3.837,3.8401,3.8336,3.8454,3.8458,3.8463,3.8524,3.8535,3.8544,0,0,0,0,0,3.836,3.8405,3.8388,3.8392,3.8403,3.8423,3.8425,3.84,3.8372,3.8393,3.8381,3.8352,3.8396,3.837,3.8374,3.8406,3.8452,3.8457,3.8462,3.852,3.8533,3.8543,0,0,0,0,0,0,3.8419,3.8403,3.8384,3.8426,3.8427,3.8414,3.8439,3.8415,3.8423,3.8417,3.8386,3.8385,3.8423,3.8418,3.8389,3.846,3.8419,3.8425,3.8461,3.8473,3.8483,3.8483,3.8337,0,0,0,0,0,3.8437,3.8456,3.844,3.8479,3.8481,3.846,3.8468,3.845,3.8449,3.8448,3.8439,3.844,3.8453,3.8463,3.8475,3.8524,3.8521,3.8548,3.8558,3.8566,3.8572,3.8597,3.8609,3.8482,3.8482,3.8482,0,0,3.8475,3.8468,3.8481,3.8491,3.8489,3.8509,3.846,3.8483,3.8497,3.8452,3.8483,3.8476,3.8475,3.8516,3.8534,3.8513,3.8607,3.8573,3.858,3.8581,3.8604,3.8616,3.8627,3.8486,3.8485,3.8485,0,0,3.8553,3.855,3.8582,3.8582,3.858,3.8566,3.8574,3.8565,3.8559,3.859,3.8557,3.8574,3.8598,3.8599,3.8602,3.8683,3.8656,3.8688,3.8738,3.8763,3.8773,3.8782,3.881,3.8821,3.8693,3.8694,3.8694,0,3.8599,3.8627,3.8602,3.8627,3.8633,3.8593,3.8626,3.8627,3.8629,3.8634,3.8611,3.8642,3.8638,3.8679,3.8699,3.8703,3.8711,3.8687,3.8774,3.8782,3.879,3.8817,3.8828,3.8697,3.8697,3.8697,3.8696,0,3.8685,3.8705,3.8732,3.8735,3.8744,3.8773,3.8752,3.8764,3.8746,3.8734,3.8767,3.8761,3.8771,3.878,3.8762,3.8819,3.8806,3.8779,3.8737,3.8806,3.8831,3.8841,3.8703,3.8701,3.87,3.8699,0,0,3.8798,3.8789,3.8799,3.88,3.8797,3.8812,3.8839,3.885,3.8861,3.8864,3.8887,3.8909,3.8885,3.8889,3.887,3.8893,3.8957,3.8863,3.8862,3.888,3.902,3.904,3.9052,3.894,3.8942,3.8943,3.902,0,3.8873,3.8919,3.8898,3.8947,3.8965,3.893,3.8954,3.8954,3.8945,3.896,3.8949,3.8966,3.8932,3.8934,3.8955,3.8945,3.8984,3.8939,3.896,3.8961,3.896,3.9065,3.9086,3.9158,3.9029,3.9031,3.9032,0,3.8966,3.8974,3.9025,3.9019,3.9026,3.9048,3.9056,3.9071,3.9071,3.9063,3.9068,3.9045,3.9072,3.9032,3.9069,3.9038,3.9046,3.9042,3.9045,3.9045,3.9,3.9067,3.918,3.9191,3.9047,3.9046,3.9045,0,3.9043,3.9067,3.91,3.9103,3.9097,3.9113,3.9111,3.9109,3.9117,3.9125,3.913,3.9141,3.9146,3.9155,3.9136,3.9109,3.9176,3.9134,3.9169,3.917,3.9184,3.9183,3.9299,3.919,3.919,3.919,3.919,0,3.9128,3.9161,3.9135,3.9156,3.9191,3.9167,3.9203,3.9197,3.9196,3.9215,3.9185,3.9203,3.9177,3.9193,3.9179,3.9211,3.9214,3.9208,3.9204,3.921,3.9211,3.9214,3.9208,3.9193,3.9192,3.9192,3.9191,0,3.9219,3.9204,3.9238,3.923,3.9229,3.9255,3.9248,3.9267,3.9257,3.9281,3.9286,3.9269,3.9286,3.9269,3.9285,3.9275,3.9319,3.9307,3.9319,3.9315,3.9351,3.9348,3.9473,3.9488,3.937,3.9371,3.9372,0,3.9274,3.9299,3.9294,3.9305,3.9305,3.9323,3.9331,3.9309,3.9319,3.9322,3.934,3.9355,3.9366,3.9396,3.9385,3.9397,3.9385,3.9428,3.9387,3.9393,3.9386,3.9384,3.9386,3.9436,3.9438,3.9439,3.944,0,3.9373,3.9365,3.9378,3.939,3.9401,3.9409,3.9414,3.9425,3.9402,3.9415,3.9432,3.9441,3.9458,3.9473,3.9483,3.9481,3.9457,3.9453,3.9462,3.9469,3.9474,3.9471,3.9341,3.945,3.9449,3.9448,3.9448,3.9447,3.9448,3.9468,3.9468,3.9484,3.9487,3.9493,3.951,3.9503,3.9517,3.9529,3.9516,3.9537,3.9538,3.9548,3.9549,3.9566,3.9548,3.9561,3.9564,3.9567,3.9572,3.9473,3.9568,3.9567,3.9567,3.9567,3.9567,0,3.9545,3.9544,3.9559,3.9568,3.9581,3.9559,3.9564,3.9576,3.9596,3.9599,3.961,3.9631,3.9646,3.9638,3.9651,3.9666,3.9655,3.967,3.9668,3.9668,3.9588,3.9579,3.9678,3.9678,3.9678,3.9678,3.9678,3.9678,3.9597,3.963,3.9622,3.9656,3.9654,3.9676,3.9681,3.9687,3.9689,3.9714,3.9726,3.9721,3.9719,3.9732,3.9745,3.9742,3.9748,3.9767,3.976,3.9685,3.9674,3.9663,3.9654,3.9768,3.9768,3.9838,3.9839,3.984]}]]